RLX605 LIRF-DAAG

Flight info

Callsign RLX605
Flight time N/A
Altitude 35000
Route ESINO Z924 ABIDU DCT GOKMI DCT SUPUX DCT ETOIL DCT REQIN UG26 LIMON
Aircraft B737/M-SDE2E3FGHIRWXY/LB1

Departure

Time 2026-05-06 14:34
Airport Rome–Fiumicino Leonardo da Vinci International Airport (LIRF)

Arrival

Time N/A
Airport Houari Boumediene Airport (DAAG)
Time Latitude Longitude Altitude Speed Heading
2026-05-06 13:38 41.79585 12.25904 18 ft 0 kts 296°
2026-05-06 14:12 41.79584 12.25907 18 ft 2 kts 296°
2026-05-06 14:12 41.79578 12.25924 20 ft 2 kts 298°
2026-05-06 14:13 41.79570 12.25943 18 ft 2 kts 300°
2026-05-06 14:13 41.79562 12.25961 21 ft 2 kts 304°
2026-05-06 14:13 41.79552 12.25979 21 ft 2 kts 308°
2026-05-06 14:13 41.79542 12.25996 20 ft 2 kts 315°
2026-05-06 14:14 41.79529 12.26011 20 ft 2 kts 327°
2026-05-06 14:14 41.79515 12.26020 19 ft 2 kts 347°
2026-05-06 14:14 41.79498 12.26022 19 ft 2 kts 12°
2026-05-06 14:14 41.79490 12.26019 18 ft 1 kts 19°
2026-05-06 14:17 41.79495 12.26022 18 ft 2 kts 19°
2026-05-06 14:17 41.79517 12.26033 18 ft 4 kts 20°
2026-05-06 14:17 41.79541 12.26047 18 ft 4 kts 31°
2026-05-06 14:18 41.79564 12.26066 18 ft 2 kts 31°
2026-05-06 14:18 41.79570 12.26070 20 ft 4 kts 29°
2026-05-06 14:18 41.79598 12.26090 20 ft 5 kts 27°
2026-05-06 14:18 41.79626 12.26109 18 ft 5 kts 27°
2026-05-06 14:19 41.79654 12.26127 18 ft 4 kts 27°
2026-05-06 14:19 41.79682 12.26146 19 ft 4 kts 27°
2026-05-06 14:19 41.79709 12.26157 18 ft 4 kts 351°
2026-05-06 14:19 41.79737 12.26137 19 ft 5 kts 318°
2026-05-06 14:20 41.79754 12.26099 18 ft 7 kts 297°
2026-05-06 14:20 41.79790 12.25998 19 ft 15 kts 295°
2026-05-06 14:20 41.79834 12.25872 19 ft 15 kts 295°
2026-05-06 14:20 41.79877 12.25752 17 ft 14 kts 295°
2026-05-06 14:21 41.79918 12.25636 18 ft 13 kts 296°
2026-05-06 14:21 41.79958 12.25526 16 ft 13 kts 294°
2026-05-06 14:21 41.79994 12.25418 17 ft 13 kts 295°
2026-05-06 14:21 41.80031 12.25313 18 ft 12 kts 295°
2026-05-06 14:22 41.80066 12.25210 17 ft 12 kts 292°
2026-05-06 14:22 41.80092 12.25106 17 ft 12 kts 287°
2026-05-06 14:22 41.80111 12.25002 16 ft 11 kts 281°
2026-05-06 14:22 41.80110 12.24899 15 ft 11 kts 259°
2026-05-06 14:23 41.80088 12.24800 13 ft 11 kts 250°
2026-05-06 14:23 41.80063 12.24704 11 ft 11 kts 250°
2026-05-06 14:23 41.80039 12.24612 11 ft 10 kts 250°
2026-05-06 14:23 41.80012 12.24523 9 ft 10 kts 249°
2026-05-06 14:24 41.79987 12.24436 8 ft 10 kts 249°
2026-05-06 14:24 41.79964 12.24351 9 ft 10 kts 250°
2026-05-06 14:24 41.79941 12.24268 10 ft 9 kts 250°
2026-05-06 14:24 41.79921 12.24187 12 ft 9 kts 256°
2026-05-06 14:25 41.79917 12.24103 11 ft 9 kts 274°
2026-05-06 14:25 41.79911 12.24023 11 ft 9 kts 253°
2026-05-06 14:25 41.79890 12.23946 12 ft 10 kts 250°
2026-05-06 14:25 41.79866 12.23859 13 ft 10 kts 249°
2026-05-06 14:26 41.79842 12.23774 12 ft 10 kts 249°
2026-05-06 14:26 41.79843 12.23691 13 ft 9 kts 306°
2026-05-06 14:26 41.79900 12.23657 14 ft 9 kts 343°
2026-05-06 14:26 41.79959 12.23633 16 ft 9 kts 343°
2026-05-06 14:27 41.80017 12.23609 17 ft 12 kts 343°
2026-05-06 14:27 41.80113 12.23570 18 ft 15 kts 343°
2026-05-06 14:27 41.80208 12.23531 18 ft 14 kts 342°
2026-05-06 14:27 41.80299 12.23492 15 ft 13 kts 342°
2026-05-06 14:28 41.80386 12.23456 13 ft 13 kts 342°
2026-05-06 14:28 41.80470 12.23420 13 ft 13 kts 342°
2026-05-06 14:28 41.80553 12.23385 13 ft 12 kts 342°
2026-05-06 14:28 41.80606 12.23363 12 ft 12 kts 342°
2026-05-06 14:29 41.80685 12.23330 9 ft 12 kts 342°
2026-05-06 14:29 41.80762 12.23298 9 ft 11 kts 342°
2026-05-06 14:29 41.80837 12.23267 8 ft 11 kts 342°
2026-05-06 14:29 41.80910 12.23236 8 ft 11 kts 342°
2026-05-06 14:30 41.80980 12.23207 10 ft 10 kts 342°
2026-05-06 14:30 41.81049 12.23178 12 ft 10 kts 342°
2026-05-06 14:30 41.81114 12.23151 15 ft 10 kts 342°
2026-05-06 14:30 41.81179 12.23124 13 ft 10 kts 342°
2026-05-06 14:31 41.81251 12.23094 14 ft 13 kts 342°
2026-05-06 14:31 41.81337 12.23058 14 ft 13 kts 342°
2026-05-06 14:31 41.81407 12.22993 12 ft 13 kts 302°
2026-05-06 14:31 41.81451 12.22888 9 ft 13 kts 298°
2026-05-06 14:32 41.81491 12.22784 9 ft 12 kts 292°
2026-05-06 14:32 41.81466 12.22687 9 ft 12 kts 204°
2026-05-06 14:32 41.81406 12.22699 10 ft 0 kts 163°
2026-05-06 14:33 41.81404 12.22700 10 ft 1 kts 163°
2026-05-06 14:33 41.81179 12.22795 11 ft 69 kts 162°
2026-05-06 14:33 41.80512 12.23074 14 ft 129 kts 162°
2026-05-06 14:34 41.79578 12.23496 359 ft 148 kts 163°
2026-05-06 14:34 41.78539 12.23906 843 ft 169 kts 163°
2026-05-06 14:34 41.77297 12.24283 1292 ft 196 kts 171°
2026-05-06 14:34 41.75924 12.24613 1948 ft 203 kts 175°
2026-05-06 14:35 41.74484 12.24494 2612 ft 216 kts 194°
2026-05-06 14:35 41.73151 12.23394 2963 ft 241 kts 230°
2026-05-06 14:35 41.72127 12.21565 3638 ft 247 kts 230°
2026-05-06 14:35 41.71070 12.19763 4490 ft 249 kts 229°
2026-05-06 14:36 41.69993 12.17937 5299 ft 252 kts 231°
2026-05-06 14:36 41.68917 12.16068 6025 ft 258 kts 231°
2026-05-06 14:36 41.67818 12.14162 6892 ft 261 kts 231°
2026-05-06 14:36 41.66693 12.12227 7704 ft 265 kts 231°
2026-05-06 14:37 41.65556 12.10285 8660 ft 265 kts 231°
2026-05-06 14:37 41.64406 12.08331 9574 ft 269 kts 231°
2026-05-06 14:37 41.63238 12.06351 10377 ft 276 kts 231°
2026-05-06 14:37 41.61991 12.04246 10634 ft 302 kts 230°
2026-05-06 14:38 41.60387 12.02256 10851 ft 327 kts 218°
2026-05-06 14:38 41.58546 12.00406 11282 ft 342 kts 217°
2026-05-06 14:38 41.56626 11.98480 11994 ft 348 kts 217°
2026-05-06 14:38 41.54685 11.96499 12784 ft 352 kts 218°
2026-05-06 14:39 41.52736 11.94481 13606 ft 356 kts 218°
2026-05-06 14:39 41.50773 11.92426 14366 ft 360 kts 218°
2026-05-06 14:39 41.48799 11.90350 15215 ft 361 kts 218°
2026-05-06 14:39 41.46823 11.88265 16067 ft 363 kts 218°
2026-05-06 14:40 41.44831 11.86165 16878 ft 365 kts 218°
2026-05-06 14:40 41.42851 11.84079 17650 ft 368 kts 218°
2026-05-06 14:40 41.40831 11.81953 18397 ft 371 kts 218°
2026-05-06 14:40 41.38945 11.79590 19022 ft 376 kts 231°
2026-05-06 14:41 41.37622 11.76573 19683 ft 380 kts 245°
2026-05-06 14:41 41.36679 11.73270 20404 ft 382 kts 248°
2026-05-06 14:41 41.35787 11.69923 21043 ft 385 kts 248°
2026-05-06 14:41 41.34901 11.66539 21664 ft 389 kts 248°
2026-05-06 14:42 41.34003 11.63124 22218 ft 392 kts 248°
2026-05-06 14:42 41.33092 11.59700 22758 ft 393 kts 248°
2026-05-06 14:42 41.32169 11.56262 23223 ft 396 kts 248°
2026-05-06 14:42 41.31233 11.52803 23653 ft 398 kts 248°
2026-05-06 14:43 41.30287 11.49328 24044 ft 399 kts 248°
2026-05-06 14:43 41.29337 11.45851 24466 ft 400 kts 248°
2026-05-06 14:43 41.28397 11.42420 24878 ft 401 kts 248°
2026-05-06 14:43 41.27441 11.38937 25267 ft 402 kts 248°
2026-05-06 14:44 41.26479 11.35439 25641 ft 403 kts 248°
2026-05-06 14:44 41.25515 11.31939 26003 ft 404 kts 248°
2026-05-06 14:44 41.24549 11.28433 26467 ft 402 kts 247°
2026-05-06 14:45 41.22633 11.21491 27275 ft 401 kts 247°
2026-05-06 14:45 41.21662 11.17990 27354 ft 408 kts 247°
2026-05-06 14:45 41.20676 11.14437 27605 ft 410 kts 247°
2026-05-06 14:45 41.19689 11.10880 27998 ft 409 kts 247°
2026-05-06 14:46 41.18705 11.07340 28384 ft 409 kts 247°
2026-05-06 14:46 41.17717 11.03788 28704 ft 410 kts 247°
2026-05-06 14:46 41.16727 11.00236 29065 ft 410 kts 247°
2026-05-06 14:46 41.15741 10.96700 29528 ft 407 kts 247°
2026-05-06 14:47 41.14762 10.93195 30027 ft 403 kts 247°
2026-05-06 14:47 41.13788 10.89714 30436 ft 400 kts 247°
2026-05-06 14:47 41.12833 10.86305 30797 ft 399 kts 247°
2026-05-06 14:47 41.11864 10.82854 31161 ft 397 kts 246°
2026-05-06 14:48 41.10902 10.79431 31558 ft 395 kts 246°
2026-05-06 14:48 41.09945 10.76033 31959 ft 392 kts 246°
2026-05-06 14:48 41.08994 10.72656 32361 ft 390 kts 246°
2026-05-06 14:48 41.08045 10.69295 32773 ft 388 kts 246°
2026-05-06 14:49 41.07101 10.65951 33248 ft 385 kts 246°
2026-05-06 14:49 41.06161 10.62629 33638 ft 384 kts 246°
2026-05-06 14:49 41.05222 10.59317 34004 ft 384 kts 246°
2026-05-06 14:49 41.04283 10.56004 34295 ft 384 kts 245°
2026-05-06 14:50 41.03343 10.52695 34555 ft 384 kts 246°
2026-05-06 14:50 41.02398 10.49374 34788 ft 385 kts 246°
2026-05-06 14:50 41.01452 10.46049 34954 ft 388 kts 246°
2026-05-06 14:51 40.99548 10.39372 34945 ft 390 kts 246°
2026-05-06 14:51 40.97723 10.32664 34945 ft 385 kts 248°
2026-05-06 14:52 40.96075 10.25924 34962 ft 384 kts 248°
2026-05-06 14:52 40.94438 10.19210 34978 ft 383 kts 248°
2026-05-06 14:53 40.92780 10.12506 34964 ft 383 kts 248°
2026-05-06 14:53 40.91108 10.05804 34948 ft 383 kts 248°
2026-05-06 14:54 40.89440 9.99151 34952 ft 384 kts 248°
2026-05-06 14:54 40.87754 9.92450 34960 ft 385 kts 248°
2026-05-06 14:55 40.86059 9.85729 34962 ft 386 kts 248°
2026-05-06 14:55 40.84353 9.78985 34964 ft 388 kts 247°
2026-05-06 14:56 40.83008 9.73680 34972 ft 388 kts 247°
2026-05-06 14:57 40.82155 9.70323 34970 ft 389 kts 247°
2026-05-06 14:57 40.81336 9.67102 34967 ft 389 kts 247°
2026-05-06 14:58 40.80798 9.64989 34965 ft 389 kts 247°
2026-05-06 14:58 40.79083 9.58265 34955 ft 389 kts 247°
2026-05-06 14:59 40.77355 9.51509 34947 ft 388 kts 247°
2026-05-06 14:59 40.75628 9.44772 34981 ft 387 kts 246°
2026-05-06 15:00 40.73893 9.38033 34945 ft 388 kts 246°
2026-05-06 15:00 40.72154 9.31289 34945 ft 389 kts 246°
2026-05-06 15:01 40.70410 9.24546 34947 ft 389 kts 246°
2026-05-06 15:01 40.68655 9.17784 34956 ft 390 kts 246°
2026-05-06 15:02 40.66894 9.11014 34957 ft 391 kts 246°
2026-05-06 15:02 40.65725 9.06532 34959 ft 393 kts 247°
2026-05-06 15:03 40.64064 9.00179 34959 ft 396 kts 247°
2026-05-06 15:03 40.62258 8.93288 34960 ft 399 kts 247°
2026-05-06 15:04 40.60437 8.86356 34951 ft 401 kts 247°
2026-05-06 15:04 40.58606 8.79405 34951 ft 403 kts 247°
2026-05-06 15:05 40.56767 8.72442 34943 ft 403 kts 247°
2026-05-06 15:05 40.54931 8.65515 34966 ft 404 kts 248°
2026-05-06 15:06 40.53065 8.58487 34942 ft 409 kts 248°
2026-05-06 15:06 40.51181 8.51421 34945 ft 408 kts 248°
2026-05-06 15:07 40.49313 8.44429 34943 ft 407 kts 248°
2026-05-06 15:07 40.47433 8.37408 34963 ft 406 kts 248°
2026-05-06 15:08 40.45551 8.30401 34970 ft 406 kts 248°
2026-05-06 15:08 40.43860 8.23336 34955 ft 407 kts 255°
2026-05-06 15:09 40.43338 8.15957 34959 ft 409 kts 262°
2026-05-06 15:09 40.42972 8.08514 34952 ft 408 kts 262°
2026-05-06 15:10 40.41854 8.01349 34968 ft 397 kts 243°
2026-05-06 15:10 40.38829 7.95360 34944 ft 395 kts 224°
2026-05-06 15:11 40.34802 7.90450 34955 ft 395 kts 223°
2026-05-06 15:11 40.30737 7.85584 34946 ft 396 kts 223°
2026-05-06 15:12 40.26701 7.80712 34949 ft 398 kts 223°
2026-05-06 15:12 40.22626 7.75767 34951 ft 399 kts 224°
2026-05-06 15:13 40.18546 7.70812 34939 ft 400 kts 224°
2026-05-06 15:13 40.14454 7.65851 34948 ft 401 kts 224°
2026-05-06 15:14 40.10369 7.60906 34946 ft 402 kts 224°
2026-05-06 15:14 40.06246 7.55925 34957 ft 403 kts 224°
2026-05-06 15:15 40.02138 7.50972 34943 ft 403 kts 224°
2026-05-06 15:15 39.98010 7.46001 34939 ft 403 kts 224°
2026-05-06 15:16 39.94578 7.41875 34944 ft 403 kts 224°
2026-05-06 15:16 39.90459 7.36932 34946 ft 403 kts 224°
2026-05-06 15:17 39.86338 7.31993 34946 ft 402 kts 224°
2026-05-06 15:17 39.82215 7.27060 34942 ft 402 kts 224°
2026-05-06 15:18 39.78118 7.22166 34939 ft 401 kts 224°
2026-05-06 15:18 39.74007 7.17264 34942 ft 401 kts 224°
2026-05-06 15:19 39.69954 7.12285 34942 ft 401 kts 226°
2026-05-06 15:19 39.65968 7.07214 34943 ft 401 kts 226°
2026-05-06 15:20 39.61977 7.02145 34941 ft 401 kts 226°
2026-05-06 15:20 39.57977 6.97095 34932 ft 401 kts 226°
2026-05-06 15:21 39.53973 6.92057 34939 ft 401 kts 226°
2026-05-06 15:21 39.49986 6.87052 34941 ft 401 kts 225°
2026-05-06 15:22 39.45972 6.82022 34956 ft 402 kts 226°
2026-05-06 15:22 39.41951 6.76992 34944 ft 402 kts 226°
2026-05-06 15:23 39.37924 6.71962 34920 ft 402 kts 226°
2026-05-06 15:23 39.33902 6.66948 34936 ft 401 kts 226°
2026-05-06 15:24 39.29879 6.61940 34943 ft 401 kts 226°
2026-05-06 15:24 39.25875 6.56964 34940 ft 402 kts 226°
2026-05-06 15:25 39.21850 6.51971 34935 ft 402 kts 226°
2026-05-06 15:25 39.17820 6.46979 34943 ft 402 kts 226°
2026-05-06 15:26 39.13782 6.41986 34940 ft 402 kts 226°
2026-05-06 15:26 39.09757 6.37017 34939 ft 402 kts 226°
2026-05-06 15:27 39.05715 6.32034 34935 ft 402 kts 226°
2026-05-06 15:27 39.01700 6.27092 34938 ft 402 kts 226°
2026-05-06 15:28 38.97675 6.22110 34939 ft 402 kts 227°
2026-05-06 15:28 38.93679 6.17070 34927 ft 402 kts 227°
2026-05-06 15:29 38.89690 6.12036 34937 ft 401 kts 227°
2026-05-06 15:29 38.85720 6.07043 34951 ft 402 kts 227°
2026-05-06 15:30 38.81723 6.02029 34936 ft 402 kts 227°
2026-05-06 15:30 38.77710 5.97006 34934 ft 402 kts 227°
2026-05-06 15:31 38.73726 5.92028 34902 ft 402 kts 227°
2026-05-06 15:31 38.69716 5.87026 34916 ft 401 kts 227°
2026-05-06 15:32 38.63707 5.79544 34934 ft 402 kts 227°
2026-05-06 15:32 38.59697 5.74562 34922 ft 402 kts 227°
2026-05-06 15:33 38.55707 5.69613 34951 ft 402 kts 227°
2026-05-06 15:33 38.51687 5.64634 34925 ft 402 kts 227°
2026-05-06 15:34 38.47666 5.59662 34922 ft 402 kts 227°
2026-05-06 15:34 38.43644 5.54698 34927 ft 402 kts 227°
2026-05-06 15:35 38.39616 5.49735 34927 ft 402 kts 226°
2026-05-06 15:35 38.35622 5.44821 34922 ft 402 kts 226°
2026-05-06 15:36 38.31597 5.39876 34933 ft 402 kts 226°
2026-05-06 15:36 38.27567 5.34934 34928 ft 402 kts 226°
2026-05-06 15:37 38.23532 5.29994 34934 ft 402 kts 226°
2026-05-06 15:37 38.19496 5.25060 34934 ft 403 kts 226°
2026-05-06 15:38 38.15447 5.20118 34923 ft 403 kts 226°
2026-05-06 15:38 38.11412 5.15202 34923 ft 403 kts 226°
2026-05-06 15:39 38.07366 5.10279 34909 ft 403 kts 226°
2026-05-06 15:39 38.03320 5.05363 34917 ft 402 kts 226°
2026-05-06 15:40 37.99273 5.00455 34927 ft 402 kts 226°
2026-05-06 15:40 37.95236 4.95547 34924 ft 401 kts 226°
2026-05-06 15:41 37.91209 4.90639 34926 ft 401 kts 226°
2026-05-06 15:41 37.87205 4.85766 34921 ft 402 kts 226°
2026-05-06 15:42 37.83177 4.80874 34913 ft 400 kts 227°
2026-05-06 15:42 37.79160 4.76002 34916 ft 399 kts 227°
2026-05-06 15:43 37.75147 4.71144 34922 ft 399 kts 227°
2026-05-06 15:43 37.71140 4.66301 34920 ft 398 kts 227°
2026-05-06 15:44 37.67137 4.61469 34919 ft 398 kts 227°
2026-05-06 15:44 37.63160 4.56677 34933 ft 397 kts 226°
2026-05-06 15:45 37.59163 4.51869 34911 ft 396 kts 227°
2026-05-06 15:45 37.55172 4.47076 34919 ft 395 kts 227°
2026-05-06 15:46 37.51189 4.42299 34916 ft 395 kts 227°
2026-05-06 15:46 37.49190 4.39902 34435 ft 401 kts 227°
2026-05-06 15:46 37.47166 4.37478 33784 ft 400 kts 227°
2026-05-06 15:47 37.45144 4.35060 32974 ft 400 kts 226°
2026-05-06 15:47 37.43152 4.32679 32171 ft 401 kts 226°
2026-05-06 15:47 37.41141 4.30280 31632 ft 395 kts 226°
2026-05-06 15:47 37.39158 4.27915 31029 ft 391 kts 226°
2026-05-06 15:48 37.37189 4.25568 30468 ft 387 kts 225°
2026-05-06 15:48 37.35237 4.23242 29906 ft 384 kts 225°
2026-05-06 15:48 37.33305 4.20942 29261 ft 381 kts 225°
2026-05-06 15:48 37.31391 4.18665 28687 ft 377 kts 225°
2026-05-06 15:49 37.29497 4.16413 28083 ft 373 kts 225°
2026-05-06 15:49 37.27621 4.14184 27526 ft 369 kts 225°
2026-05-06 15:49 37.25788 4.12008 26947 ft 366 kts 225°
2026-05-06 15:49 37.23945 4.09821 26401 ft 363 kts 225°
2026-05-06 15:50 37.22118 4.07655 25849 ft 360 kts 225°
2026-05-06 15:50 37.20305 4.05506 25301 ft 357 kts 225°
2026-05-06 15:50 37.18500 4.03369 24755 ft 355 kts 225°
2026-05-06 15:50 37.16707 4.01247 24199 ft 353 kts 225°
2026-05-06 15:51 37.14920 3.99133 23639 ft 353 kts 224°
2026-05-06 15:51 37.13133 3.97021 23005 ft 352 kts 224°
2026-05-06 15:51 37.11350 3.94916 22419 ft 350 kts 224°
2026-05-06 15:51 37.09583 3.92831 21852 ft 347 kts 224°
2026-05-06 15:52 37.07855 3.90786 21299 ft 344 kts 226°
2026-05-06 15:52 37.06279 3.88544 20617 ft 344 kts 234°
2026-05-06 15:52 37.04886 3.86075 19775 ft 350 kts 236°
2026-05-06 15:52 37.03497 3.83563 19140 ft 350 kts 236°
2026-05-06 15:53 37.02120 3.81067 18653 ft 346 kts 236°
2026-05-06 15:53 37.00750 3.78592 18128 ft 344 kts 236°